Chicago Midway, IL

5:33 PM CDT on May 24, 2017 (GMT -0500)
Chicago-Midway

Weather History for KMDW - May, 2014

Change the Weather History Date:

Monday, May 5, 2014

  Actual Average Record
Temperature  
Mean Temperature 52 °F 58 °F  
Max Temperature 59 °F 67 °F 94 °F (1949)
Min Temperature 45 °F 48 °F 34 °F (1954)
Degree Days  
Heating Degree Days 13 8  
Month to date heating degree days 62 45  
Since 1 July heating degree days 6708 5816  
Cooling Degree Days 0 1  
Month to date cooling degree days 0 5  
Year to date cooling degree days 5 18  
Growing Degree Days 2 (Base 50)    
Moisture  
Dew Point 36 °F    
Average Humidity 58    
Maximum Humidity 76    
Minimum Humidity 34    
Precipitation  
Precipitation 0.01 in 0.13 in 0.83 in (1991)
Month to date precipitation 0.14 0.62  
Year to date precipitation 6.97 10.98  
Sea Level Pressure  
Sea Level Pressure 29.99 in    
Wind  
Wind Speed 14 mph (NE)    
Max Wind Speed 22 mph    
Max Gust Speed 26 mph    
Visibility 10 miles    
Events Rain , Thunderstorm    
T = Trace of Precipitation, MM = Missing Value Source: NWS Daily Summary

Daily Weather History Graph

Daily Weather History Graph

Search for Another Location

Airport or City:

Trip Planner

Search our weather history database for the weather conditions in past years. The results will help you decide how hot, cold, wet, or windy it might be!

Date:

Astronomy

May. 05, 2014 Rise Set
Actual Time 5:42 AM CDT 7:53 PM CDT
Civil Twilight 5:11 AM CDT 8:24 PM CDT
Nautical Twilight 4:33 AM CDT 9:02 PM CDT
Astronomical Twilight 3:52 AM CDT 9:44 PM CDT
Moon 11:01 AM CDT (5/5) 12:37 AM CDT (5/5)
Length of Visible Light 15h 12m
Length of Day
14h 11m
Waxing Crescent, 37% of the Moon is Illuminated
May 5
Waxing Crescent
May 6
First Quarter
May 14
Full
May 21
Last Quarter
May 28
New

Hourly Weather History & Observations

Time (CDT) Temp. Windchill Dew Point Humidity Pressure Visibility Wind Dir Wind Speed Gust Speed Precip Events Conditions
12:51 AM 46.9 °F - 32.0 °F 56% 30.05 in 10.0 mi ENE 9.2 mph - N/A   Overcast
1:51 AM 46.9 °F - 33.1 °F 59% 30.02 in 10.0 mi ENE 11.5 mph - N/A   Overcast
2:51 AM 46.9 °F - 35.1 °F 63% 30.03 in 10.0 mi NE 11.5 mph - 0.00 in Rain Light Rain
3:51 AM 46.4 °F 41.5 °F 35.6 °F 66% 29.99 in 10.0 mi ESE 10.4 mph - N/A   Overcast
4:51 AM 48.0 °F - 36.0 °F 63% 29.96 in 10.0 mi East 11.5 mph - N/A   Overcast
5:51 AM 48.0 °F - 36.0 °F 63% 30.02 in 10.0 mi North 10.4 mph - N/A   Overcast
6:00 AM 48.0 °F - 37.0 °F 66% 29.99 in 10.0 mi ENE 10.4 mph - 0.00 in Rain , Thunderstorm Light Thunderstorms and Rain
6:28 AM 46.9 °F - 39.0 °F 74% 29.99 in 10.0 mi NE 9.2 mph - 0.01 in Rain Light Rain
6:51 AM 46.4 °F 41.5 °F 39.2 °F 76% 30.02 in 10.0 mi NNE 10.4 mph - N/A Rain Light Rain
7:51 AM 48.0 °F - 39.0 °F 71% 30.01 in 10.0 mi ENE 10.4 mph - 0.00 in   Overcast
8:51 AM 50.0 °F - 37.0 °F 61% 30.00 in 10.0 mi ENE 15.0 mph - N/A   Overcast
9:51 AM 53.1 °F - 36.0 °F 52% 30.00 in 10.0 mi East 15.0 mph - N/A   Overcast
10:51 AM 54.0 °F - 36.0 °F 51% 30.00 in 10.0 mi NE 20.7 mph - N/A   Overcast
11:51 AM 55.0 °F - 36.0 °F 49% 29.99 in 10.0 mi ENE 18.4 mph 25.3 mph N/A   Mostly Cloudy
12:51 PM 55.9 °F - 36.0 °F 47% 29.97 in 10.0 mi ENE 19.6 mph - N/A   Mostly Cloudy
1:51 PM 57.0 °F - 37.0 °F 47% 29.96 in 10.0 mi ENE 19.6 mph - N/A   Overcast
2:51 PM 57.0 °F - 37.9 °F 49% 29.95 in 10.0 mi NE 15.0 mph 23.0 mph N/A   Overcast
3:51 PM 57.9 °F - 37.0 °F 46% 29.94 in 10.0 mi NNE 15.0 mph - N/A   Mostly Cloudy
4:51 PM 55.0 °F - 37.0 °F 51% 29.95 in 10.0 mi NNE 19.6 mph - N/A   Mostly Cloudy
5:51 PM 54.0 °F - 36.0 °F 51% 29.96 in 10.0 mi NNE 15.0 mph 23.0 mph N/A   Mostly Cloudy
6:51 PM 51.1 °F - 36.0 °F 56% 29.96 in 10.0 mi NNE 16.1 mph - N/A   Mostly Cloudy
7:51 PM 50.0 °F - 36.0 °F 59% 29.97 in 10.0 mi North 10.4 mph - N/A   Mostly Cloudy
8:51 PM 46.0 °F 40.6 °F 36.0 °F 68% 29.99 in 10.0 mi NNE 11.5 mph - N/A   Scattered Clouds
9:51 PM 46.0 °F 41.0 °F 36.0 °F 68% 29.99 in 10.0 mi North 10.4 mph - N/A   Scattered Clouds
10:51 PM 46.0 °F 40.6 °F 35.1 °F 66% 29.99 in 10.0 mi NNE 11.5 mph - N/A   Scattered Clouds
11:51 PM 46.0 °F 40.2 °F 34.0 °F 63% 30.00 in 10.0 mi NNE 12.7 mph - N/A   Scattered Clouds